PUA2603 SPZO-SCFA

Flight info

Callsign PUA2603
Flight time 1h 32m
Altitude 37000
Route LITOT UM415 OPKUL UL300 ARI UV204 REBOL REBOL5
Aircraft A20N/M-SDE2E3FGHIRWXY/LB1

Departure

Time 2026-04-25 05:40
Airport Alejandro Velasco Astete International Airport (SPZO)

Arrival

Time 2026-04-25 07:12
Airport Andrés Sabella Gálvez International Airport (SCFA)
Time Latitude Longitude Altitude Speed Heading
2026-04-25 05:12 -13.53740 -71.94395 10834 ft 0 kts 119°
2026-04-25 05:26 -13.53733 -71.94408 10835 ft 2 kts 123°
2026-04-25 05:27 -13.53724 -71.94421 10835 ft 2 kts 140°
2026-04-25 05:27 -13.53711 -71.94428 10835 ft 2 kts 163°
2026-04-25 05:27 -13.53696 -71.94430 10835 ft 2 kts 187°
2026-04-25 05:27 -13.53681 -71.94425 10834 ft 2 kts 212°
2026-04-25 05:28 -13.53669 -71.94415 10833 ft 2 kts 235°
2026-04-25 05:28 -13.53663 -71.94401 10833 ft 2 kts 259°
2026-04-25 05:28 -13.53662 -71.94391 10832 ft 0 kts 274°
2026-04-25 05:28 -13.53663 -71.94384 10832 ft 0 kts 276°
2026-04-25 05:32 -13.53663 -71.94385 10832 ft 2 kts 276°
2026-04-25 05:32 -13.53659 -71.94432 10834 ft 10 kts 274°
2026-04-25 05:32 -13.53651 -71.94540 10840 ft 18 kts 275°
2026-04-25 05:33 -13.53631 -71.94709 10850 ft 27 kts 277°
2026-04-25 05:33 -13.53610 -71.94891 10859 ft 22 kts 276°
2026-04-25 05:33 -13.53594 -71.95036 10868 ft 17 kts 276°
2026-04-25 05:33 -13.53584 -71.95136 10877 ft 11 kts 275°
2026-04-25 05:34 -13.53576 -71.95220 10883 ft 12 kts 276°
2026-04-25 05:34 -13.53565 -71.95319 10889 ft 14 kts 276°
2026-04-25 05:34 -13.53552 -71.95416 10894 ft 11 kts 291°
2026-04-25 05:34 -13.53486 -71.95446 10893 ft 13 kts 17°
2026-04-25 05:35 -13.53421 -71.95382 10886 ft 12 kts 88°
2026-04-25 05:35 -13.53422 -71.95348 10884 ft 0 kts 95°
2026-04-25 05:38 -13.53422 -71.95345 10884 ft 3 kts 95°
2026-04-25 05:39 -13.53437 -71.95196 10876 ft 53 kts 95°
2026-04-25 05:39 -13.53500 -71.94563 10841 ft 122 kts 96°
2026-04-25 05:39 -13.53609 -71.93473 10795 ft 178 kts 95°
2026-04-25 05:39 -13.53750 -71.92165 11202 ft 186 kts 95°
2026-04-25 05:40 -13.53896 -71.90855 11905 ft 182 kts 95°
2026-04-25 05:40 -13.54053 -71.89590 12546 ft 181 kts 98°
2026-04-25 05:40 -13.54400 -71.88313 12855 ft 190 kts 110°
2026-04-25 05:40 -13.54968 -71.87028 13098 ft 203 kts 114°
2026-04-25 05:41 -13.55546 -71.85664 13349 ft 215 kts 108°
2026-04-25 05:41 -13.56074 -71.84173 13611 ft 228 kts 107°
2026-04-25 05:41 -13.56626 -71.82577 13875 ft 241 kts 108°
2026-04-25 05:41 -13.57269 -71.80901 14050 ft 261 kts 110°
2026-04-25 05:42 -13.57975 -71.79110 14319 ft 277 kts 110°
2026-04-25 05:42 -13.58724 -71.77221 14604 ft 292 kts 111°
2026-04-25 05:42 -13.59567 -71.75219 14889 ft 309 kts 116°
2026-04-25 05:42 -13.60741 -71.73289 15200 ft 324 kts 126°
2026-04-25 05:43 -13.62238 -71.71531 15718 ft 330 kts 131°
2026-04-25 05:43 -13.63855 -71.69805 16347 ft 332 kts 132°
2026-04-25 05:43 -13.65466 -71.68099 16956 ft 333 kts 132°
2026-04-25 05:43 -13.67102 -71.66354 17528 ft 335 kts 132°
2026-04-25 05:44 -13.68740 -71.64598 18080 ft 337 kts 131°
2026-04-25 05:44 -13.70462 -71.62924 18586 ft 342 kts 141°
2026-04-25 05:44 -13.72551 -71.61679 19058 ft 348 kts 155°
2026-04-25 05:44 -13.74927 -71.60980 19495 ft 354 kts 169°
2026-04-25 05:45 -13.77427 -71.60778 19843 ft 361 kts 175°
2026-04-25 05:45 -13.79977 -71.60677 19991 ft 373 kts 176°
2026-04-25 05:45 -13.82657 -71.60575 20202 ft 382 kts 175°
2026-04-25 05:45 -13.85366 -71.60458 20576 ft 385 kts 176°
2026-04-25 05:46 -13.88083 -71.60582 20985 ft 390 kts 187°
2026-04-25 05:46 -13.90739 -71.61272 21374 ft 395 kts 198°
2026-04-25 05:46 -13.93335 -71.62292 21782 ft 397 kts 200°
2026-04-25 05:46 -13.95928 -71.63365 22195 ft 400 kts 200°
2026-04-25 05:47 -13.98553 -71.64444 22612 ft 403 kts 200°
2026-04-25 05:47 -14.01207 -71.65514 23062 ft 405 kts 199°
2026-04-25 05:47 -14.03907 -71.66382 23495 ft 406 kts 192°
2026-04-25 05:47 -14.06712 -71.66997 23846 ft 411 kts 189°
2026-04-25 05:48 -14.09556 -71.67549 24012 ft 421 kts 189°
2026-04-25 05:48 -14.12529 -71.68120 24234 ft 429 kts 189°
2026-04-25 05:48 -14.15500 -71.68700 24601 ft 433 kts 189°
2026-04-25 05:48 -14.18510 -71.69297 25018 ft 435 kts 189°
2026-04-25 05:49 -14.21505 -71.69895 25419 ft 437 kts 189°
2026-04-25 05:49 -14.24485 -71.70491 25792 ft 439 kts 189°
2026-04-25 05:49 -14.27501 -71.71094 26169 ft 442 kts 189°
2026-04-25 05:49 -14.30521 -71.71697 26531 ft 444 kts 189°
2026-04-25 05:50 -14.33605 -71.72313 26877 ft 447 kts 189°
2026-04-25 05:50 -14.36650 -71.72921 27202 ft 449 kts 189°
2026-04-25 05:50 -14.39789 -71.73548 27543 ft 452 kts 189°
2026-04-25 05:50 -14.42889 -71.74168 27872 ft 454 kts 189°
2026-04-25 05:51 -14.46013 -71.74794 28212 ft 456 kts 189°
2026-04-25 05:51 -14.49105 -71.75414 28631 ft 455 kts 189°
2026-04-25 05:51 -14.52219 -71.76037 29142 ft 452 kts 189°
2026-04-25 05:51 -14.55353 -71.76663 29617 ft 451 kts 189°
2026-04-25 05:52 -14.58460 -71.77284 30024 ft 450 kts 189°
2026-04-25 05:52 -14.61520 -71.77896 30410 ft 450 kts 189°
2026-04-25 05:52 -14.64645 -71.78521 30808 ft 449 kts 189°
2026-04-25 05:52 -14.67685 -71.79125 31196 ft 448 kts 188°
2026-04-25 05:53 -14.70687 -71.79375 31510 ft 446 kts 177°
2026-04-25 05:53 -14.73732 -71.78980 31825 ft 444 kts 165°
2026-04-25 05:53 -14.76572 -71.77979 32149 ft 441 kts 153°
2026-04-25 05:53 -14.79192 -71.76398 32466 ft 439 kts 142°
2026-04-25 05:54 -14.81410 -71.74365 32751 ft 437 kts 130°
2026-04-25 05:54 -14.83221 -71.71899 33040 ft 435 kts 119°
2026-04-25 05:54 -14.85693 -71.66315 33686 ft 433 kts 111°
2026-04-25 05:55 -14.86803 -71.63499 33998 ft 433 kts 111°
2026-04-25 05:55 -14.87933 -71.60651 34313 ft 433 kts 111°
2026-04-25 05:55 -14.89046 -71.57880 34611 ft 433 kts 111°
2026-04-25 05:55 -14.90178 -71.55082 34916 ft 432 kts 111°
2026-04-25 05:56 -14.91322 -71.52272 35233 ft 431 kts 111°
2026-04-25 05:56 -14.92474 -71.49445 35547 ft 430 kts 111°
2026-04-25 05:56 -14.93595 -71.46695 35829 ft 430 kts 111°
2026-04-25 05:56 -14.94748 -71.43868 36098 ft 430 kts 111°
2026-04-25 05:57 -14.95915 -71.41008 36326 ft 430 kts 111°
2026-04-25 05:57 -14.97072 -71.38171 36516 ft 431 kts 111°
2026-04-25 05:57 -14.98229 -71.35332 36689 ft 433 kts 111°
2026-04-25 05:57 -14.99408 -71.32439 36862 ft 434 kts 111°
2026-04-25 05:58 -15.00566 -71.29594 37034 ft 435 kts 111°
2026-04-25 05:58 -15.01743 -71.26701 37201 ft 436 kts 111°
2026-04-25 05:58 -15.02924 -71.23795 37353 ft 437 kts 111°
2026-04-25 05:58 -15.04112 -71.20872 37501 ft 438 kts 111°
2026-04-25 05:59 -15.05309 -71.17928 37666 ft 439 kts 111°
2026-04-25 05:59 -15.06483 -71.15042 37845 ft 439 kts 111°
2026-04-25 05:59 -15.09460 -71.09547 37942 ft 442 kts 127°
2026-04-25 06:00 -15.13943 -71.05141 37964 ft 444 kts 145°
2026-04-25 06:00 -15.19525 -71.02288 37994 ft 446 kts 162°
2026-04-25 06:01 -15.25557 -71.00879 38028 ft 447 kts 169°
2026-04-25 06:01 -15.31602 -70.99664 38027 ft 449 kts 168°
2026-04-25 06:02 -15.37753 -70.98400 38015 ft 449 kts 168°
2026-04-25 06:02 -15.43890 -70.97120 38000 ft 448 kts 168°
2026-04-25 06:03 -15.50032 -70.95829 37988 ft 448 kts 168°
2026-04-25 06:03 -15.56162 -70.94540 37981 ft 448 kts 168°
2026-04-25 06:04 -15.62272 -70.93254 37986 ft 448 kts 168°
2026-04-25 06:04 -15.68413 -70.91961 37987 ft 449 kts 168°
2026-04-25 06:05 -15.74512 -70.90675 37987 ft 449 kts 168°
2026-04-25 06:05 -15.80634 -70.89384 37992 ft 449 kts 168°
2026-04-25 06:06 -15.86852 -70.88071 37995 ft 450 kts 168°
2026-04-25 06:06 -15.92972 -70.86779 37999 ft 450 kts 168°
2026-04-25 06:07 -15.99124 -70.85479 37998 ft 450 kts 168°
2026-04-25 06:07 -16.05265 -70.84180 37986 ft 450 kts 168°
2026-04-25 06:08 -16.11452 -70.82871 37963 ft 451 kts 168°
2026-04-25 06:08 -16.17680 -70.81552 37946 ft 451 kts 168°
2026-04-25 06:09 -16.23908 -70.80232 37935 ft 451 kts 168°
2026-04-25 06:09 -16.30121 -70.78912 37918 ft 451 kts 168°
2026-04-25 06:10 -16.36258 -70.77608 37919 ft 450 kts 168°
2026-04-25 06:10 -16.42388 -70.76309 37928 ft 450 kts 168°
2026-04-25 06:11 -16.48505 -70.75014 37945 ft 451 kts 168°
2026-04-25 06:11 -16.54612 -70.73717 37936 ft 451 kts 168°
2026-04-25 06:12 -16.60749 -70.72414 37891 ft 451 kts 168°
2026-04-25 06:12 -16.66877 -70.71117 37824 ft 451 kts 168°
2026-04-25 06:13 -16.73070 -70.69806 37774 ft 451 kts 168°
2026-04-25 06:14 -16.82333 -70.67837 37768 ft 451 kts 168°
2026-04-25 06:14 -16.88472 -70.66529 37797 ft 451 kts 168°
2026-04-25 06:15 -16.94637 -70.65217 37825 ft 452 kts 168°
2026-04-25 06:15 -17.00821 -70.63899 37875 ft 452 kts 168°
2026-04-25 06:16 -17.07040 -70.62573 37861 ft 453 kts 168°
2026-04-25 06:16 -17.13218 -70.61254 37819 ft 452 kts 168°
2026-04-25 06:17 -17.19397 -70.59933 37764 ft 452 kts 168°
2026-04-25 06:17 -17.25567 -70.58614 37722 ft 452 kts 168°
2026-04-25 06:18 -17.31724 -70.57296 37645 ft 452 kts 168°
2026-04-25 06:18 -17.37917 -70.55969 37612 ft 452 kts 168°
2026-04-25 06:19 -17.44104 -70.54642 37528 ft 452 kts 168°
2026-04-25 06:19 -17.50269 -70.53321 37464 ft 452 kts 168°
2026-04-25 06:20 -17.56463 -70.51997 37413 ft 452 kts 168°
2026-04-25 06:20 -17.62635 -70.50677 37346 ft 452 kts 168°
2026-04-25 06:21 -17.68789 -70.49355 37285 ft 453 kts 168°
2026-04-25 06:21 -17.74976 -70.48025 37230 ft 453 kts 168°
2026-04-25 06:22 -17.81167 -70.46694 37186 ft 453 kts 168°
2026-04-25 06:22 -17.87339 -70.45365 37181 ft 453 kts 168°
2026-04-25 06:23 -17.93513 -70.44036 37138 ft 453 kts 168°
2026-04-25 06:23 -17.99692 -70.42704 37112 ft 453 kts 168°
2026-04-25 06:24 -18.05876 -70.41370 37091 ft 453 kts 168°
2026-04-25 06:24 -18.12046 -70.40037 37086 ft 453 kts 168°
2026-04-25 06:25 -18.18210 -70.38705 37081 ft 453 kts 168°
2026-04-25 06:25 -18.24384 -70.37368 37079 ft 452 kts 168°
2026-04-25 06:26 -18.30578 -70.36026 37075 ft 453 kts 168°
2026-04-25 06:26 -18.36775 -70.34772 37071 ft 454 kts 172°
2026-04-25 06:27 -18.43048 -70.34095 37071 ft 453 kts 175°
2026-04-25 06:27 -18.49334 -70.33572 37064 ft 453 kts 176°
2026-04-25 06:28 -18.55654 -70.33041 37064 ft 453 kts 176°
2026-04-25 06:28 -18.61983 -70.32502 37066 ft 453 kts 176°
2026-04-25 06:29 -18.68334 -70.31956 37071 ft 453 kts 176°
2026-04-25 06:29 -18.74660 -70.31412 37066 ft 453 kts 176°
2026-04-25 06:30 -18.81000 -70.30866 37075 ft 453 kts 176°
2026-04-25 06:30 -18.87343 -70.30318 37080 ft 453 kts 176°
2026-04-25 06:31 -18.93684 -70.29771 37091 ft 453 kts 176°
2026-04-25 06:31 -18.99994 -70.29225 37093 ft 453 kts 176°
2026-04-25 06:32 -19.06327 -70.28678 37091 ft 453 kts 176°
2026-04-25 06:32 -19.12679 -70.28129 37089 ft 453 kts 176°
2026-04-25 06:33 -19.19002 -70.27581 37088 ft 453 kts 176°
2026-04-25 06:33 -19.25365 -70.27028 37082 ft 453 kts 176°
2026-04-25 06:34 -19.31701 -70.26477 37079 ft 454 kts 176°
2026-04-25 06:34 -19.38051 -70.25928 37067 ft 455 kts 177°
2026-04-25 06:35 -19.44415 -70.25511 37058 ft 454 kts 178°
2026-04-25 06:35 -19.50712 -70.25128 37043 ft 454 kts 178°
2026-04-25 06:36 -19.57111 -70.24729 37036 ft 454 kts 178°
2026-04-25 06:36 -19.63438 -70.24328 37038 ft 454 kts 178°
2026-04-25 06:37 -19.69800 -70.23923 37039 ft 455 kts 178°
2026-04-25 06:37 -19.76185 -70.23513 37044 ft 455 kts 178°
2026-04-25 06:38 -19.82547 -70.23107 37048 ft 455 kts 178°
2026-04-25 06:38 -19.88908 -70.22700 37050 ft 455 kts 178°
2026-04-25 06:39 -19.95222 -70.22295 37051 ft 455 kts 178°
2026-04-25 06:39 -20.00958 -70.21927 37052 ft 455 kts 178°
2026-04-25 06:40 -20.07296 -70.21521 37054 ft 455 kts 179°
2026-04-25 06:40 -20.13658 -70.21113 37054 ft 455 kts 179°
2026-04-25 06:41 -20.20017 -70.20705 37054 ft 456 kts 179°
2026-04-25 06:41 -20.26372 -70.20295 37057 ft 457 kts 179°
2026-04-25 06:42 -20.32747 -70.19884 37057 ft 456 kts 179°
2026-04-25 06:42 -20.39135 -70.19473 37059 ft 456 kts 179°
2026-04-25 06:43 -20.45563 -70.19055 37058 ft 456 kts 179°
2026-04-25 06:43 -20.51955 -70.18642 37060 ft 456 kts 179°
2026-04-25 06:44 -20.58371 -70.18488 37060 ft 455 kts 185°
2026-04-25 06:44 -20.64666 -70.18984 37058 ft 454 kts 188°
2026-04-25 06:45 -20.70945 -70.19589 37058 ft 454 kts 188°
2026-04-25 06:45 -20.77247 -70.20188 37059 ft 454 kts 188°
2026-04-25 06:46 -20.83464 -70.20772 37053 ft 454 kts 188°
2026-04-25 06:46 -20.89630 -70.21349 37051 ft 454 kts 188°
2026-04-25 06:47 -20.95765 -70.21924 37047 ft 454 kts 188°
2026-04-25 06:47 -21.01935 -70.22503 37048 ft 454 kts 188°
2026-04-25 06:48 -21.08255 -70.23096 37049 ft 454 kts 188°
2026-04-25 06:48 -21.14584 -70.23690 37047 ft 455 kts 188°
2026-04-25 06:49 -21.20966 -70.24290 37042 ft 454 kts 188°
2026-04-25 06:49 -21.27285 -70.24883 37045 ft 454 kts 188°
2026-04-25 06:50 -21.33645 -70.25482 36933 ft 456 kts 188°
2026-04-25 06:50 -21.36834 -70.25782 36356 ft 454 kts 188°
2026-04-25 06:50 -21.40002 -70.26080 35722 ft 451 kts 188°
2026-04-25 06:50 -21.43123 -70.26373 35072 ft 449 kts 188°
2026-04-25 06:51 -21.46230 -70.26667 34420 ft 448 kts 188°
2026-04-25 06:51 -21.49342 -70.26962 33765 ft 447 kts 188°
2026-04-25 06:51 -21.52458 -70.27256 33115 ft 448 kts 188°
2026-04-25 06:51 -21.55600 -70.27553 32467 ft 448 kts 188°
2026-04-25 06:52 -21.58704 -70.27846 31783 ft 450 kts 188°
2026-04-25 06:52 -21.61867 -70.28146 31010 ft 453 kts 188°
2026-04-25 06:52 -21.64999 -70.28443 30201 ft 458 kts 188°
2026-04-25 06:52 -21.68243 -70.28750 29336 ft 463 kts 188°
2026-04-25 06:53 -21.71474 -70.29057 28467 ft 468 kts 187°
2026-04-25 06:53 -21.74751 -70.29367 27592 ft 472 kts 187°
2026-04-25 06:53 -21.78036 -70.29678 26985 ft 468 kts 187°
2026-04-25 06:53 -21.81240 -70.29978 26556 ft 460 kts 187°
2026-04-25 06:54 -21.84477 -70.30282 26105 ft 455 kts 187°
2026-04-25 06:54 -21.87628 -70.30579 25657 ft 451 kts 187°
2026-04-25 06:54 -21.90731 -70.30874 25215 ft 447 kts 187°
2026-04-25 06:54 -21.93847 -70.31150 24776 ft 443 kts 186°
2026-04-25 06:55 -21.96863 -70.31368 24351 ft 438 kts 186°
2026-04-25 06:55 -21.99912 -70.31574 23904 ft 435 kts 186°
2026-04-25 06:55 -22.02896 -70.31776 23473 ft 430 kts 186°
2026-04-25 06:55 -22.05910 -70.31980 23022 ft 426 kts 186°
2026-04-25 06:56 -22.08906 -70.32187 22584 ft 422 kts 186°
2026-04-25 06:56 -22.11842 -70.32391 22152 ft 418 kts 185°
2026-04-25 06:56 -22.14743 -70.32592 21720 ft 415 kts 185°
2026-04-25 06:56 -22.17611 -70.32792 21248 ft 411 kts 185°
2026-04-25 06:57 -22.20464 -70.32992 20725 ft 409 kts 185°
2026-04-25 06:57 -22.23349 -70.33193 20210 ft 406 kts 185°
2026-04-25 06:57 -22.26147 -70.33389 19716 ft 403 kts 185°
2026-04-25 06:57 -22.28967 -70.33588 19220 ft 401 kts 185°
2026-04-25 06:58 -22.31765 -70.33783 18700 ft 399 kts 185°
2026-04-25 06:58 -22.34511 -70.33975 18150 ft 396 kts 185°
2026-04-25 06:58 -22.37280 -70.34171 17682 ft 393 kts 185°
2026-04-25 06:58 -22.40013 -70.34363 17173 ft 391 kts 185°
2026-04-25 06:59 -22.42729 -70.34554 16658 ft 389 kts 185°
2026-04-25 06:59 -22.45462 -70.34747 16202 ft 386 kts 185°
2026-04-25 06:59 -22.48143 -70.34935 15711 ft 383 kts 184°
2026-04-25 06:59 -22.50815 -70.35124 15192 ft 380 kts 184°
2026-04-25 07:00 -22.53448 -70.35309 14748 ft 377 kts 184°
2026-04-25 07:00 -22.56079 -70.35494 14283 ft 374 kts 184°
2026-04-25 07:00 -22.58684 -70.35678 13777 ft 371 kts 184°
2026-04-25 07:00 -22.61243 -70.35858 13301 ft 368 kts 184°
2026-04-25 07:01 -22.63815 -70.36039 12772 ft 366 kts 184°
2026-04-25 07:01 -22.66341 -70.36215 12279 ft 364 kts 184°
2026-04-25 07:01 -22.68880 -70.36394 11822 ft 362 kts 184°
2026-04-25 07:01 -22.71412 -70.36572 11304 ft 360 kts 183°
2026-04-25 07:02 -22.73920 -70.36750 10810 ft 358 kts 183°
2026-04-25 07:02 -22.76398 -70.36925 10558 ft 347 kts 183°
2026-04-25 07:02 -22.78786 -70.37093 10397 ft 333 kts 183°
2026-04-25 07:02 -22.81050 -70.37252 10249 ft 321 kts 183°
2026-04-25 07:03 -22.83242 -70.37407 10112 ft 309 kts 183°
2026-04-25 07:03 -22.85381 -70.37558 9911 ft 300 kts 183°
2026-04-25 07:03 -22.87474 -70.37706 9502 ft 300 kts 182°
2026-04-25 07:03 -22.89568 -70.37894 9108 ft 298 kts 185°
2026-04-25 07:04 -22.91641 -70.38133 8734 ft 296 kts 185°
2026-04-25 07:04 -22.93700 -70.38377 8370 ft 294 kts 185°
2026-04-25 07:04 -22.95733 -70.38618 8006 ft 291 kts 185°
2026-04-25 07:04 -22.97778 -70.38858 7637 ft 289 kts 185°
2026-04-25 07:05 -22.99779 -70.39093 7299 ft 287 kts 185°
2026-04-25 07:05 -23.01783 -70.39329 6942 ft 284 kts 184°
2026-04-25 07:05 -23.03762 -70.39561 6612 ft 282 kts 184°
2026-04-25 07:05 -23.05760 -70.39793 6242 ft 280 kts 184°
2026-04-25 07:06 -23.07724 -70.40027 5902 ft 279 kts 185°
2026-04-25 07:06 -23.09660 -70.40271 5566 ft 277 kts 185°
2026-04-25 07:06 -23.11583 -70.40507 5233 ft 275 kts 184°
2026-04-25 07:06 -23.13503 -70.40738 4900 ft 273 kts 184°
2026-04-25 07:07 -23.15425 -70.40967 4579 ft 270 kts 184°
2026-04-25 07:07 -23.17289 -70.41191 4453 ft 263 kts 184°
2026-04-25 07:07 -23.19100 -70.41412 4248 ft 256 kts 184°
2026-04-25 07:07 -23.20873 -70.41630 4049 ft 250 kts 184°
2026-04-25 07:08 -23.22602 -70.41840 3853 ft 243 kts 184°
2026-04-25 07:08 -23.24284 -70.42045 3674 ft 236 kts 184°
2026-04-25 07:08 -23.25908 -70.42243 3500 ft 228 kts 184°
2026-04-25 07:08 -23.27476 -70.42432 3330 ft 220 kts 185°
2026-04-25 07:09 -23.29015 -70.42622 3184 ft 214 kts 184°
2026-04-25 07:09 -23.30502 -70.42798 3034 ft 213 kts 185°
2026-04-25 07:09 -23.31970 -70.42975 2958 ft 203 kts 185°
2026-04-25 07:09 -23.33370 -70.43145 2616 ft 202 kts 184°
2026-04-25 07:10 -23.34747 -70.43314 2287 ft 190 kts 185°
2026-04-25 07:10 -23.36035 -70.43473 2034 ft 175 kts 185°
2026-04-25 07:10 -23.37209 -70.43617 1753 ft 162 kts 185°
2026-04-25 07:10 -23.38292 -70.43749 1522 ft 147 kts 185°
2026-04-25 07:11 -23.39290 -70.43871 1317 ft 138 kts 186°
2026-04-25 07:11 -23.40261 -70.43990 1099 ft 138 kts 186°
2026-04-25 07:11 -23.41227 -70.44109 895 ft 138 kts 186°
2026-04-25 07:11 -23.42196 -70.44226 685 ft 137 kts 187°
2026-04-25 07:12 -23.43163 -70.44340 508 ft 136 kts 187°
2026-04-25 07:12 -23.44591 -70.44524 387 ft 52 kts 186°
2026-04-25 07:12 -23.44910 -70.44563 382 ft 43 kts 187°
2026-04-25 07:13 -23.45184 -70.44579 377 ft 27 kts 147°
2026-04-25 07:13 -23.45202 -70.44412 380 ft 18 kts 32°
2026-04-25 07:13 -23.45089 -70.44390 382 ft 15 kts
2026-04-25 07:13 -23.44991 -70.44361 382 ft 14 kts 56°
2026-04-25 07:14 -23.44966 -70.44261 384 ft 12 kts 75°
2026-04-25 07:14 -23.44968 -70.44191 386 ft 7 kts 97°
2026-04-25 07:14 -23.44970 -70.44170 386 ft 0 kts 95°